Battle Mountain, Nevada, United States (89820)
Lat: 40.64N, Lon: 116.93W
Wx Zone: NVZ036
Local Info
Past Weather Observations for Thursday, November 20, 2014

NOTE: This archive is for the closest National Weather Service station to Battle Mountain. Information may differ from the station used for current weather conditions.

Click here for Long-term Archive

Time Weather Temperature Dewpoint Humidity Pressure Winds Precip Visibility
23:56
Clear
30°F / -1°C 27°F / -3°C 86% 30.01 in
(1016 mb)
Calm - 10SM
22:56
Partly Cloudy
34°F / 1°C 28°F / -2°C 81% 30.01 in
(1016 mb)
Calm - 10SM
21:56
Partly Cloudy
36°F / 2°C 30°F / -1°C 81% 30.01 in
(1016 mb)
Calm - 10SM
20:56
Mostly Cloudy
37°F / 3°C 30°F / -1°C 75% 30.01 in
(1016 mb)
N 5.8 mph
(N 9 kph)
- 10SM
19:56
Clear
34°F / 1°C 28°F / -2°C 81% 29.98 in
(1015 mb)
Calm - 10SM
18:56
Partly Cloudy
36°F / 2°C 28°F / -2°C 75% 29.98 in
(1015 mb)
NE 4.6 mph
(NE 7 kph)
- 10SM
17:56
Partly Cloudy
37°F / 3°C 30°F / -1°C 75% 30.01 in
(1016 mb)
SSW 3.5 mph
(SSW 6 kph)
- 10SM
16:56
Mostly Cloudy
43°F / 6°C 30°F / -1°C 61% 30.01 in
(1016 mb)
N 4.6 mph
(N 7 kph)
- 10SM
15:56
Partly Cloudy
48°F / 9°C 30°F / -1°C 50% 30.01 in
(1016 mb)
NW 3.5 mph
(NW 6 kph)
- 10SM
14:56
Overcast
50°F / 10°C 30°F / -1°C 47% 30.01 in
(1016 mb)
N 5.8 mph
(N 9 kph)
- 10SM
13:56
Partly Cloudy
50°F / 10°C 30°F / -1°C 47% 30.01 in
(1016 mb)
Calm - 10SM
12:56
Partly Cloudy
50°F / 10°C 30°F / -1°C 47% 30.04 in
(1017 mb)
SSE 3.5 mph
(SSE 6 kph)
- 10SM
11:56
Clear
50°F / 10°C 30°F / -1°C 47% 30.04 in
(1017 mb)
Calm - 10SM
10:56
Clear
48°F / 9°C 30°F / -1°C 50% 30.06 in
(1018 mb)
Variable 4.6 mph
(Variable 7 kph)
- 10SM
08:56
Clear
43°F / 6°C 28°F / -2°C 57% 30.09 in
(1019 mb)
S 4.6 mph
(S 7 kph)
- 10SM
07:56
Clear
36°F / 2°C 27°F / -3°C 70% 30.09 in
(1019 mb)
SSE 3.5 mph
(SSE 6 kph)
- 10SM
06:56
Overcast
34°F / 1°C 27°F / -3°C 75% 30.09 in
(1019 mb)
SE 5.8 mph
(SE 9 kph)
- 10SM
05:56
Overcast
34°F / 1°C 27°F / -3°C 75% 30.09 in
(1019 mb)
ESE 3.5 mph
(ESE 6 kph)
- 10SM
04:56
Partly Cloudy
30°F / -1°C 23°F / -5°C 75% 30.09 in
(1019 mb)
SE 4.6 mph
(SE 7 kph)
- 10SM
03:56
Clear
28°F / -2°C 21°F / -6°C 74% 30.09 in
(1019 mb)
Calm - 10SM
02:56
Overcast
36°F / 2°C 25°F / -4°C 65% 30.09 in
(1019 mb)
Calm - 10SM
01:56
Overcast
36°F / 2°C 25°F / -4°C 65% 30.09 in
(1019 mb)
Calm - 10SM
00:56
Overcast
39°F / 4°C 25°F / -4°C 56% 30.09 in
(1019 mb)
Calm - 10SM
Time Weather Temperature Dewpoint Humidity Pressure Winds Precip Visibility


Weather for websites

WeatherForYou.com, LLC is not responsible for any damages or problems caused by this service. Current weather conditions are obtained from the closest station including government and personal stations which may have varying degrees of accuracy. Weather forecasts are derived from the NOAA NDFD. Like all things, this site belongs to Jesus Christ... He just trusts me to maintain it. If you have any questions or comments email webmaster@weatherforyou.com

Copyright © 2014, WeatherForYou.com LLC. All rights reserved.